Simultaneous Nadir Overpasses (SNOs) Predictions

Prediction of SNOs between NOAA-15 and METOP-C Satellite Orbit:

Table of predicted SNOs for the next 14.0 days since TLE Epoch: 12/26/2018
Index Date (NOAA-15) Time (NOAA-15) Lat,Lon (NOAA-15) SZA (NOAA-15 ) Date (METOP-C) Time (METOP-C) Lat,Lon (METOP-C) SZA (METOP-C ) Distance(km) Time Diff (sec)
1 01/09/2019 10:39:06 80.73, 52.46 104.01 01/09/2019 10:37:56 80.74, 52.41 103.99 1.03 70
2 01/09/2019 11:29:42 -80.75,-140.38 76.00 01/09/2019 11:28:38 -80.73,-140.38 76.04 1.60 64
3 01/09/2019 12:20:09 80.74, 27.15 104.00 01/09/2019 12:19:17 80.75, 27.28 104.01 2.87 52
4 01/09/2019 13:10:44 -80.73,-165.35 76.01 01/09/2019 13:09:59 -80.74,-165.51 76.02 3.22 45
5 01/09/2019 14:01:12 80.74, 1.83 103.99 01/09/2019 14:00:39 80.74, 1.81 103.98 0.42 33
6 01/09/2019 14:51:48 -80.75, 168.98 76.03 01/09/2019 14:51:21 -80.74, 169.02 76.05 1.94 27
7 01/09/2019 15:42:15 80.74, -23.49 103.98 01/09/2019 15:42:00 80.76, -23.32 103.99 3.27 15
8 01/09/2019 16:32:50 -80.74, 144.01 76.03 01/09/2019 16:32:42 -80.75, 143.89 76.03 2.58 8
9 01/09/2019 17:23:18 80.75, -48.81 103.96 01/09/2019 17:23:22 80.75, -48.80 103.97 0.20 4
10 01/09/2019 18:13:54 -80.76, 118.34 76.05 01/09/2019 18:14:04 -80.74, 118.41 76.06 2.41 10
11 01/09/2019 19:04:21 80.75, -74.13 103.95 01/09/2019 19:04:44 80.74, -74.27 103.94 2.93 23
12 01/09/2019 19:54:56 -80.74, 93.37 76.05 01/09/2019 19:55:25 -80.75, 93.29 76.04 1.95 29
13 01/09/2019 20:45:24 80.75, -99.44 103.94 01/09/2019 20:46:05 80.75, -99.40 103.95 0.81 41
14 01/09/2019 21:35:59 -80.75, 68.06 76.07 01/09/2019 21:36:46 -80.77, 68.16 76.03 2.83 47




NCC Satellite Simultaneous Nadir Overpasses (SNOs) Prediction Service
